When you browse on this site, cookies collect data to enhance your experience and personalize the content and advertising you see.
Visit our Privacy Policy to learn more. By continuing to use the site, you agree to this use of cookies and data.
  • In Hungary
  • List of Countries
  • For 7 days
  • Water Temperature
  • Weather Map
  • News
  • Weather Widgets
  • user-avatar
    Login

    Hourly Weather Heemstede

    Today, 26 August, Monday

    Time Temperature Precipitation Wind Pressure Humidity
    00:00 +21°C° 0 mm 3 mps 764 mmHg 72%
    01:00 +21°C° 0 mm 3 mps 764 mmHg 73%
    02:00 +20°C° 0 mm 2 mps 764 mmHg 74%
    03:00 +20°C° 0 mm 2 mps 763 mmHg 75%
    04:00 +20°C° 0 mm 2 mps 763 mmHg 75%
    05:00 +20°C° 0 mm 2 mps 764 mmHg 75%
    06:00 +21°C° 0 mm 2 mps 764 mmHg 74%
    07:00 +24°C° 0 mm 2 mps 764 mmHg 68%
    08:00 +26°C° 0 mm 2 mps 764 mmHg 62%
    09:00 +28°C° 0 mm 2 mps 764 mmHg 56%
    10:00 +29°C° 0 mm 2 mps 764 mmHg 52%
    11:00 +30°C° 0 mm 2 mps 763 mmHg 49%
    12:00 +31°C° 0 mm 2 mps 763 mmHg 45%
    13:00 +32°C° 0 mm 2 mps 763 mmHg 44%
    14:00 +32°C° 0 mm 2 mps 763 mmHg 44%
    15:00 +32°C° 0 mm 2 mps 762 mmHg 44%
    16:00 +31°C° 0 mm 3 mps 762 mmHg 49%
    17:00 +29°C° 0 mm 3 mps 762 mmHg 54%
    18:00 +28°C° 0 mm 3 mps 762 mmHg 59%
    19:00 +27°C° 0.1 mm 3 mps 762 mmHg 63%
    20:00 +26°C° 0.1 mm 3 mps 762 mmHg 67%
    21:00 +25°C° 0.1 mm 3 mps 762 mmHg 71%
    22:00 +24°C° 0 mm 3 mps 762 mmHg 74%
    23:00 +22°C° 0 mm 3 mps 762 mmHg 77%

    Tomorrow, 27 August, Tuesday

    Time Temperature Precipitation Wind Pressure Humidity
    00:00 +22°C° 0 mm 3 mps 762 mmHg 80%
    01:00 +21°C° 0 mm 3 mps 762 mmHg 82%
    02:00 +21°C° 0 mm 3 mps 761 mmHg 84%
    03:00 +21°C° 0 mm 2 mps 761 mmHg 86%
    04:00 +21°C° 0 mm 2 mps 761 mmHg 84%
    05:00 +23°C° 0 mm 2 mps 761 mmHg 83%
    06:00 +23°C° 0 mm 1 mps 761 mmHg 81%
    07:00 +25°C° 0 mm 1 mps 761 mmHg 73%
    08:00 +27°C° 0 mm 1 mps 761 mmHg 65%
    09:00 +29°C° 0 mm 1 mps 761 mmHg 57%
    10:00 +30°C° 0 mm 1 mps 761 mmHg 52%
    11:00 +32°C° 0 mm 1 mps 761 mmHg 48%
    12:00 +33°C° 0 mm 1 mps 761 mmHg 44%
    13:00 +33°C° 0 mm 1 mps 760 mmHg 44%
    14:00 +34°C° 0 mm 2 mps 760 mmHg 44%
    15:00 +34°C° 0 mm 2 mps 760 mmHg 44%
    16:00 +31°C° 0.4 mm 2 mps 759 mmHg 49%
    17:00 +30°C° 0.4 mm 2 mps 759 mmHg 54%
    18:00 +29°C° 0.4 mm 2 mps 759 mmHg 60%
    19:00 +28°C° 0.1 mm 2 mps 759 mmHg 62%
    20:00 +27°C° 0.1 mm 2 mps 759 mmHg 64%
    21:00 +26°C° 0.1 mm 2 mps 759 mmHg 66%
    22:00 +25°C° 0 mm 2 mps 759 mmHg 67%
    23:00 +25°C° 0 mm 2 mps 759 mmHg 67%

    Day after tomorrow, 28 August, Wednesday

    Time Temperature Precipitation Wind Pressure Humidity
    00:00 +25°C° 0 mm 2 mps 759 mmHg 67%
    01:00 +24°C° 0 mm 2 mps 759 mmHg 67%
    02:00 +24°C° 0 mm 2 mps 759 mmHg 67%
    03:00 +23°C° 0 mm 2 mps 759 mmHg 67%
    04:00 +23°C° 0 mm 2 mps 759 mmHg 66%
    05:00 +24°C° 0 mm 2 mps 759 mmHg 65%
    06:00 +24°C° 0 mm 2 mps 759 mmHg 64%
    07:00 +25°C° 0 mm 3 mps 759 mmHg 61%
    08:00 +26°C° 0 mm 3 mps 759 mmHg 57%
    09:00 +28°C° 0 mm 3 mps 759 mmHg 53%
    10:00 +28°C° 0 mm 3 mps 759 mmHg 51%
    11:00 +29°C° 0 mm 3 mps 759 mmHg 50%
    12:00 +30°C° 0 mm 4 mps 759 mmHg 48%
    13:00 +29°C° 0 mm 3 mps 759 mmHg 50%
    14:00 +29°C° 0 mm 3 mps 759 mmHg 51%
    15:00 +28°C° 0 mm 2 mps 759 mmHg 53%
    16:00 +27°C° 0 mm 2 mps 759 mmHg 55%
    17:00 +26°C° 0 mm 2 mps 759 mmHg 58%
    18:00 +25°C° 0 mm 3 mps 759 mmHg 61%
    19:00 +25°C° 0.2 mm 3 mps 759 mmHg 64%
    20:00 +24°C° 0.2 mm 3 mps 759 mmHg 68%
    21:00 +23°C° 0.2 mm 2 mps 759 mmHg 71%
    22:00 +22°C° 0.5 mm 3 mps 759 mmHg 76%
    23:00 +21°C° 0.5 mm 3 mps 760 mmHg 80%

    29 August, Thursday

    Time Temperature Precipitation Wind Pressure Humidity
    00:00 +21°C° 0.5 mm 4 mps 760 mmHg 84%
    01:00 +21°C° 0.7 mm 4 mps 760 mmHg 86%
    02:00 +20°C° 0.7 mm 4 mps 760 mmHg 88%
    03:00 +20°C° 0.7 mm 4 mps 760 mmHg 89%
    04:00 +20°C° 0.2 mm 4 mps 760 mmHg 88%
    05:00 +20°C° 0.2 mm 4 mps 760 mmHg 86%
    06:00 +20°C° 0.2 mm 4 mps 760 mmHg 85%
    07:00 +21°C° 0 mm 5 mps 760 mmHg 78%
    08:00 +21°C° 0 mm 5 mps 761 mmHg 71%
    09:00 +22°C° 0 mm 6 mps 761 mmHg 64%
    10:00 +22°C° 0 mm 6 mps 762 mmHg 63%
    11:00 +22°C° 0 mm 6 mps 762 mmHg 63%
    12:00 +23°C° 0 mm 5 mps 762 mmHg 63%
    13:00 +22°C° 0 mm 5 mps 763 mmHg 62%
    14:00 +22°C° 0 mm 5 mps 763 mmHg 61%
    15:00 +21°C° 0 mm 5 mps 763 mmHg 60%
    16:00 +20°C° 0 mm 4 mps 763 mmHg 63%
    17:00 +19°C° 0 mm 3 mps 764 mmHg 66%
    18:00 +18°C° 0 mm 3 mps 764 mmHg 69%
    19:00 +17°C° 0 mm 2 mps 764 mmHg 72%
    20:00 +18°C° 0 mm 1 mps 765 mmHg 75%
    21:00 +16°C° 0 mm 1 mps 765 mmHg 78%
    22:00 +15°C° 0 mm 1 mps 765 mmHg 78%
    23:00 +15°C° 0 mm 1 mps 765 mmHg 79%

    30 August, Friday

    Time Temperature Precipitation Wind Pressure Humidity
    00:00 +15°C° 0 mm 1 mps 765 mmHg 79%
    01:00 +15°C° 0 mm 2 mps 765 mmHg 80%
    02:00 +15°C° 0 mm 2 mps 765 mmHg 80%
    03:00 +14°C° 0 mm 2 mps 765 mmHg 81%
    04:00 +15°C° 0 mm 2 mps 765 mmHg 80%
    05:00 +15°C° 0 mm 2 mps 765 mmHg 79%
    06:00 +15°C° 0 mm 2 mps 765 mmHg 78%
    07:00 +17°C° 0 mm 3 mps 765 mmHg 70%
    08:00 +18°C° 0 mm 3 mps 765 mmHg 62%
    09:00 +20°C° 0 mm 3 mps 766 mmHg 55%
    10:00 +21°C° 0 mm 3 mps 765 mmHg 51%
    11:00 +22°C° 0 mm 3 mps 765 mmHg 48%
    12:00 +24°C° 0 mm 3 mps 765 mmHg 44%
    13:00 +24°C° 0 mm 3 mps 765 mmHg 45%
    14:00 +24°C° 0 mm 3 mps 765 mmHg 47%
    15:00 +24°C° 0 mm 3 mps 764 mmHg 48%
    16:00 +21°C° 0 mm 2 mps 764 mmHg 53%
    17:00 +20°C° 0 mm 2 mps 764 mmHg 57%
    18:00 +20°C° 0 mm 1 mps 763 mmHg 62%
    19:00 +19°C° 0 mm 1 mps 763 mmHg 64%
    20:00 +18°C° 0 mm 2 mps 763 mmHg 65%
    21:00 +17°C° 0 mm 2 mps 763 mmHg 67%
    22:00 +17°C° 0 mm 2 mps 763 mmHg 67%
    23:00 +17°C° 0 mm 3 mps 762 mmHg 67%

    31 August, Saturday

    Time Temperature Precipitation Wind Pressure Humidity
    00:00 +17°C° 0 mm 3 mps 762 mmHg 67%
    01:00 +17°C° 0 mm 3 mps 761 mmHg 68%
    02:00 +15°C° 0 mm 4 mps 761 mmHg 69%
    03:00 +15°C° 0 mm 4 mps 760 mmHg 70%
    04:00 +15°C° 0 mm 4 mps 760 mmHg 72%
    05:00 +16°C° 0 mm 5 mps 760 mmHg 75%
    06:00 +16°C° 0 mm 5 mps 760 mmHg 77%
    07:00 +17°C° 0 mm 5 mps 760 mmHg 74%
    08:00 +19°C° 0 mm 6 mps 760 mmHg 71%
    09:00 +20°C° 0 mm 6 mps 760 mmHg 68%
    10:00 +20°C° 0 mm 6 mps 760 mmHg 65%
    11:00 +21°C° 0 mm 7 mps 760 mmHg 63%
    12:00 +21°C° 0 mm 7 mps 759 mmHg 61%
    13:00 +21°C° 0 mm 7 mps 759 mmHg 60%
    14:00 +22°C° 0 mm 7 mps 758 mmHg 59%
    15:00 +22°C° 0 mm 7 mps 758 mmHg 58%
    16:00 +21°C° 0 mm 7 mps 758 mmHg 62%
    17:00 +20°C° 0 mm 6 mps 758 mmHg 66%
    18:00 +19°C° 0 mm 6 mps 758 mmHg 70%
    19:00 +19°C° 0.1 mm 6 mps 758 mmHg 74%
    20:00 +19°C° 0.1 mm 6 mps 758 mmHg 77%
    21:00 +17°C° 0.1 mm 6 mps 758 mmHg 80%
    22:00 +17°C° 0.3 mm 5 mps 758 mmHg 80%
    23:00 +17°C° 0.3 mm 5 mps 758 mmHg 80%
    Show more